Ciales, PR

11:58 AM AST on November 17, 2019 (GMT -0400)
Jaguas | | Change Station

Elev 1148 ft 18.31 °N, 66.47 °W | Updated 17 seconds ago

Clear
Clear
83.4 °F
Feels Like 87 °F
N
3.2
Wind Variable Wind from WSW
Gusts 0.0 mph

Today
High -- | Low -- °F
--% Chance of Precip.
Yesterday
High -- | Low -- °F
Precip. -- in
Pressure 29.84 in
Visibility 10.0 miles
Clouds Few 3300 ft
Scattered Clouds 4000 ft
Scattered Clouds 7000 ft
Heat Index 87 °F
Dew Point 68 °F
Humidity 60%
Rainfall 0.00 in
Snow Depth Not available.
6:33 AM 5:48 PM
Waning Gibbous, 74% visible
METAR TJSJ 171456Z 02007KT 10SM FEW033 SCT040 SCT070 29/23 A2984 RMK AO2 SLP105 SHRA DSNT N T02940233 50003
Pressure 29.84 in
Visibility 10.0 miles
Clouds Few 3300 ft
Scattered Clouds 4000 ft
Scattered Clouds 7000 ft
Heat Index 87 °F
Dew Point 68 °F
Humidity 60%
Rainfall 0.00 in
Snow Depth Not available.
6:33 AM 5:48 PM
Waning Gibbous, 74% visible
METAR TJSJ 171456Z 02007KT 10SM FEW033 SCT040 SCT070 29/23 A2984 RMK AO2 SLP105 SHRA DSNT N T02940233 50003

Get Severe Weather Alerts

Thanks for signing up!

Be on the lookout for a verification email in your inbox.

You'll start receiving the daily forecast at 6 AM.

×

10-Day Weather Forecast

Almanac

Astronomy

Nov. 17, 2019 Rise Set
Actual Time
Civil Twilight
Nautical Twilight
Astronomical Twilight
Moon
Length of Visible Light
Length of Day
Tomorrow will be .
, % of the Moon is Illuminated

Today's Extremes

State Highs State Lows

Community

WunderPhotos

Category 6

Welcome to Category 6. This is the collective home for Weather Underground's featured writeups by Dr. Jeff Masters (right), Bob Henson (left), Chris Burt, and other regular contributors.

Nearby

Air Quality

  Air Quality AQ Index Pollutant
Not available.

Snow Depth

Station Depth Elevation

Earthquake Activity

City Distance Mag. Time & Date
Minimum magnitude displayed is 2.5.

Coastal Water Temperatures

Place Temperature

Stations

Nearby Weather Stations

Station Location Temp. Windchill Dew Point Humidity Wind Precip. Elev Updated Type
                   

Watches & Warnings

There are currently no watches in effect.